RH
4 6 10 12 12 29 49 51 54 54 54 52 41 26 18 14 12 9 37 100 99 92 100 90 90 97 100 100 100 99 100 100 100 100 84 62 35 60 66 79 98 100 100 99 100 97 90 88 93 90 83 84 95 98
7 12 19 16 23 36 41 47 52 54 54 52 38 26 19 15 12 10 31 100 100 92 100 100 100 100 98 100 99 90 98 100 100 100 100 98 87 76 74 87 93 100 100 100 100 99 98 100 100 100 100 99 99 99
13 22 23 22 26 33 40 48 53 54 55 47 31 22 18 14 12 11 8 83 100 91 100 100 100 100 100 100 100 97 100 100 100 100 100 100 100 97 90 92 100 100 100 100 100 99 100 100 100 100 100 99 99 97
28 28 27 30 32 35 41 46 51 50 43 35 27 21 17 13 12 11 6 74 100 100 95 100 100 100 92 98 100 100 100 98 96 100 100 100 100 100 100 100 100 100 99 98 98 98 100 98 94 92 94 99 100 100
38 36 32 34 38 41 42 41 40 35 29 25 21 17 15 13 11 12 8 100 100 100 81 88 100 100 86 86 82 100 100 98 100 100 100 100 100 100 100 100 100 100 100 96 89 94 94 100 100 100 100 100 100 100
49 47 45 44 43 44 42 32 25 21 19 17 16 14 13 12 12 11 64 100 100 100 99 88 92 100 100 83 99 100 100 100 100 100 100 100 100 100 100 100 100 100 100 100 100 100 100 100 100 100 100 100 100 99
52 52 50 49 41 34 27 22 20 19 17 16 15 14 13 12 13 13 100 100 100 100 100 96 100 100 100 100 100 100 100 100 100 100 100 100 100 100 100 100 100 100 100 100 100 100 100 100 100 100 100 100 100 100
35 38 41 46 50 36 44 32 27 24 22 32 25 16 13 13 12 68 100 100 100 100 100 100 76 77 90 69 46 85 99 100 100 100 100 100 100 100 100 100 100 100 100 100 100 100 100 100 100 100 100 100 100 100
29 33 42 78 98 64 61 76 51 69 100 84 44 24 17 20 42 100 100 100 100 100 100 92 59 52 44 54 58 96 94 100 100 100 100 100 100 100 100 100 100 100 100 100 100 100 100 100 100 100 100 100 99 97
60 73 73 100 100 84 85 52 64 100 89 56 43 26 100 100 93 100 100 100 100 100 99 100 100 100 95 93 78 96 100 100 100 100 100 100 100 100 100 100 100 100 100 100 100 100 100 100 99 99 100 98 96 92
50 81 100 100 70 44 64 74 80 79 64 62 56 35 95 100 100 100 100 100 100 100 98 100 100 100 99 100 100 100 100 100 100 100 100 100 100 100 100 100 100 100 100 100 100 98 96 95 95 95 93 91 83 72
84 95 90 86 51 67 82 97 86 62 64 64 85 96 100 100 100 100 100 100 100 100 100 100 100 100 100 100 100 100 100 100 99 99 100 100 100 100 100 100 100 100 100 99 100 100 100 98 89 79 68 59 51 44
69 71 75 56 58 68 99 85 55 60 65 100 100 100 100 100 100 100 100 100 100 100 100 100 100 100 100 100 100 100 100 100 100 100 100 100 100 100 100 100 100 97 92 87 81 74 65 58 52 46 40 35 30 27
42 59 62 93 100 98 73 75 72 63 73 100 100 100 100 100 100 100 100 100 100 100 100 100 100 100 100 100 100 100 100 100 100 99 100 100 97 96 94 88 79 66 57 51 46 41 34 27 23 19 19 18 15 12
44 54 73 63 61 51 73 64 64 70 77 100 100 99 100 98 100 100 100 100 100 100 100 100 100 100 98 97 99 95 96 98 97 95 85 69 54 43 32 26 22 21 20 19 17 16 15 14 14 14 15 14 14 13
66 57 62 62 62 65 62 49 50 87 99 100 100 100 100 100 98 100 100 100 100 100 100 100 100 100 100 100 100 99 95 81 57 38 27 25 20 18 17 15 14 14 15 17 21 22 22 21 19 19 17 14 14 12
51 43 56 68 75 58 53 68 72 81 99 100 100 100 100 100 100 100 100 100 100 100 100 100 100 100 100 100 97 90 59 41 34 31 26 23 20 18 17 17 19 27 29 28 27 29 27 24 21 17 16 15 16 26
41 43 45 50 58 62 59 72 72 82 89 93 99 100 100 100 100 100 100 100 100 100 100 100 100 100 95 91 77 64 54 45 35 28 26 23 21 21 24 29 32 31 30 27 26 25 28 26 19 18 22 35 49 53
50 51 58 68 77 56 57 77 98 94 94 86 84 95 100 100 100 100 100 100 100 100 100 100 97 99 92 82 71 59 46 37 33 31 29 26 25 30 30 32 33 27 26 27 28 28 26 20 20 35 54 58 57 54
65 58 58 57 74 90 58 73 97 96 100 100 81 81 89 95 100 100 100 100 100 100 100 99 95 89 78 63 55 56 65 57 46 32 24 30 34 32 33 32 30 28 25 25 28 28 24 38 60 61 62 64 65 62
74 75 75 66 49 70 89 72 72 91 95 96 95 93 86 76 80 91 100 100 100 100 100 97 92 83 74 61 72 94 86 60 32 25 30 34 32 30 31 35 36 31 30 31 29 25 60 76 75 75 73 68 64 58
81 80 82 76 55 45 81 85 75 63 67 67 64 65 78 76 78 82 75 90 100 100 98 79 73 81 89 96 99 93 86 62 42 38 37 36 38 38 37 36 34 33 27 27 31 83 94 95 94 88 58 28 20 18
83 72 79 82 59 52 50 73 83 82 80 67 65 60 58 71 92 91 82 80 80 90 100 100 100 98 94 96 99 100 98 95 80 59 50 46 44 43 45 40 33 29 29 68 97 100 100 99 79 39 30 22 19 20
70 71 81 79 66 65 57 58 67 75 66 73 76 88 86 61 75 100 100 87 94 100 100 100 100 100 100 98 97 100 100 100 90 71 58 52 45 44 36 31 27 65 100 100 100 100 100 63 52 66 78 77 76 75
62 75 89 76 75 75 82 78 65 56 55 77 84 100 100 88 68 72 100 100 97 100 97 86 68 74 85 97 100 99 88 73 58 40 36 42 40 34 25 47 98 100 100 97 100 100 90 81 94 94 92 93 100 100
48 59 74 77 80 69 77 81 76 72 67 83 93 100 100 98 85 73 76 90 100 99 91 77 67 62 60 62 69 63 64 53 46 34 36 40 41 58 81 99 100 99 94 99 100 100 100 100 100 100 100 100 100 93
65 62 62 65 74 80 72 55 53 63 80 100 99 100 100 100 100 100 100 100 100 99 95 88 88 87 83 71 62 66 67 64 58 54 73 92 88 92 100 100 98 95 100 100 100 100 100 100 100 100 100 100 91 37
90 90 79 68 76 83 90 96 78 68 60 96 97 100 100 100 100 98 100 100 100 100 100 100 100 100 100 100 99 90 72 68 96 100 100 99 92 99 94 96 96 100 100 100 100 100 100 100 100 100 100 92 41 14
93 99 100 100 90 88 90 80 88 72 69 78 100 100 98 99 100 96 96 100 100 98 100 99 100 100 96 66 75 100 100 100 100 99 100 100 100 100 100 100 100 100 100 100 100 100 100 100 100 100 100 61 17 11
100 100 100 100 100 100 100 95 86 74 73 71 88 93 74 85 91 96 97 90 85 90 94 96 82 79 100 100 100 100 99 99 100 100 100 100 100 98 100 100 100 100 100 100 100 100 100 100 100 100 91 39 12 11
100 100 100 100 99 100 100 98 95 89 84 74 75 73 69 100 100 100 100 90 81 82 64 80 100 100 100 100 100 100 100 100 100 100 100 100 100 100 100 100 100 100 100 100 100 100 100 100 100 100 83 34 11 11
100 100 100 97 86 88 97 99 96 92 79 69 61 62 54 90 100 100 85 67 82 96 100 100 100 100 100 100 100 100 100 100 100 100 100 100 100 100 100 100 100 100 100 100 100 100 100 100 100 99 80 33 11 11
100 94 98 98 75 63 43 54 73 67 57 44 41 42 42 73 72 82 96 100 100 100 100 100 100 100 98 90 88 91 90 93 97 100 100 100 100 100 100 100 100 100 100 100 100 100 100 100 100 96 70 31 12 10
Wind_Speed
71 67 60 57 50 38 32 31 30 31 31 31 29 29 27 28 26 28 29 42 36 33 39 49 46 43 30 30 48 37 49 55 65 62 56 60 57 54 54 53 51 49 49 50 52 53 55 53 53 52 52 52 54 54
64 55 50 47 39 32 30 30 30 30 29 29 27 27 25 27 26 23 24 34 39 32 37 44 44 41 39 34 35 42 39 47 52 65 68 62 58 54 52 51 50 49 48 47 46 46 47 49 49 50 51 53 56 59
54 46 44 40 35 31 29 29 29 29 29 28 26 25 24 25 26 23 20 25 36 34 37 44 42 40 38 36 30 33 36 35 46 52 57 64 67 68 63 54 50 48 49 50 49 50 50 50 54 58 61 62 61 60
46 43 40 38 34 31 30 30 29 29 28 26 26 25 23 23 25 24 19 29 36 33 36 43 46 41 36 32 33 31 33 36 34 34 43 51 54 59 66 62 66 67 65 63 64 65 65 66 67 64 57 54 53 51
43 40 38 37 35 33 32 32 30 31 29 27 26 24 23 23 22 20 18 35 36 38 34 41 45 43 39 33 35 34 28 30 29 31 32 35 39 48 57 64 65 62 62 61 59 55 54 51 49 46 47 46 43 42
41 39 37 36 36 35 36 35 33 31 30 29 28 25 23 21 18 16 25 32 32 34 34 33 37 40 42 36 36 33 32 32 29 26 28 29 30 31 36 40 41 43 43 42 42 42 40 41 39 39 38 37 38 39
39 37 37 36 37 36 34 32 31 30 30 29 28 24 20 15 13 17 30 26 24 27 32 30 33 33 33 36 37 30 28 30 37 32 30 31 30 28 30 31 32 32 32 32 31 29 29 29 31 33 34 36 37 38
37 36 35 33 33 30 29 30 30 30 27 25 25 20 14 12 16 21 24 22 24 29 30 30 32 29 32 22 24 28 27 26 26 32 32 30 31 28 27 25 25 25 25 25 25 26 27 29 31 33 34 35 37 39
32 30 28 24 26 27 28 28 27 19 20 21 21 12 12 13 18 24 21 21 26 31 29 26 27 25 31 28 26 25 27 31 30 32 30 28 27 29 28 26 27 27 27 28 29 31 32 33 33 34 35 37 39 42
25 24 18 20 26 28 27 28 19 17 22 21 14 10 22 17 22 22 18 20 28 28 26 29 32 31 27 26 24 26 32 33 33 33 30 30 30 30 30 30 32 32 32 32 32 32 33 34 36 37 38 39 41 43
23 16 16 22 26 28 21 16 15 15 18 14 3 19 23 19 18 18 19 19 25 25 26 27 27 27 28 24 25 26 28 28 30 30 29 28 28 28 28 27 27 28 28 29 30 31 32 34 35 36 38 41 43 45
20 18 22 22 23 17 13 13 14 17 19 3 11 18 20 17 16 18 19 18 23 25 24 24 24 24 21 23 24 23 25 24 24 23 22 22 22 22 22 22 23 24 25 26 28 30 32 34 36 38 39 41 43 46
21 20 19 20 16 14 14 13 14 17 10 15 15 13 16 16 16 17 15 17 19 22 24 23 23 23 21 21 22 22 22 22 21 21 20 20 20 21 22 23 24 25 27 28 29 30 31 32 36 39 41 43 46 48
21 17 16 16 14 14 12 15 22 15 2 11 13 14 14 16 17 16 16 17 21 23 24 27 26 25 22 21 19 19 18 17 16 16 17 18 19 19 20 20 21 21 23 24 26 28 31 32 35 38 41 43 44 45
16 13 12 14 12 12 11 16 25 11 6 12 14 15 14 16 16 15 16 15 19 21 23 24 22 21 19 18 19 18 18 17 17 16 15 13 11 10 10 12 15 17 20 22 25 28 30 32 33 34 36 37 37 38
19 17 14 12 12 12 13 17 20 12 10 13 16 15 14 17 18 16 14 15 18 19 23 25 26 25 26 27 24 21 20 17 15 13 7 1 3 5 8 12 15 17 19 19 20 22 23 24 26 28 31 34 37 38
20 20 17 15 12 13 13 12 16 14 10 16 19 17 14 15 16 17 18 19 19 22 25 26 28 30 28 24 22 18 15 13 8 3 3 6 9 11 13 14 13 12 13 14 15 16 20 25 28 31 34 36 37 33
22 21 21 17 13 11 10 7 10 14 8 11 11 16 17 15 16 17 24 23 23 26 28 26 24 22 20 18 15 11 7 3 1 5 9 12 14 13 10 9 9 7 9 13 18 22 26 31 33 34 34 32 29 28
24 21 21 19 19 11 7 6 7 11 12 7 7 12 10 15 16 17 17 21 22 22 22 24 23 19 14 11 8 5 5 6 8 9 11 11 9 9 10 7 8 11 15 19 23 29 35 36 35 32 30 29 30 29
22 20 17 17 19 16 7 4 4 7 11 12 7 1 8 8 12 16 18 20 20 20 21 19 13 10 8 8 9 11 11 10 8 7 8 10 11 12 11 11 14 20 25 30 33 38 41 37 33 32 31 30 30 30
18 17 15 15 14 15 11 3 1 2 3 5 7 8 5 2 6 11 14 16 19 22 22 18 15 13 13 13 13 12 9 8 7 10 12 12 13 15 18 21 24 30 32 33 37 41 38 34 32 34 36 37 36 34
16 14 13 14 15 6 7 7 5 3 1 1 2 1 3 4 7 10 9 13 18 16 16 17 17 16 13 13 12 9 10 11 12 14 15 17 19 22 25 27 27 29 33 36 39 37 32 32 32 33 29 22 14 9
14 12 10 12 16 4 2 2 2 2 2 2 3 2 5 6 7 8 9 10 13 18 19 16 14 14 13 11 11 13 15 13 12 12 12 14 16 20 26 28 30 31 32 32 28 27 26 25 21 12 7 3 5 10
12 10 9 13 15 10 3 5 2 1 3 6 8 6 8 10 11 11 11 10 10 12 13 13 12 12 11 10 9 10 11 9 10 12 15 18 23 26 25 23 24 23 19 19 18 19 17 10 4 7 12 15 17 17
14 11 10 13 12 12 8 1 3 2 4 8 6 8 10 11 11 10 12 15 13 11 10 9 8 10 11 13 13 12 13 13 14 16 19 22 24 21 20 17 13 9 9 9 12 13 10 8 10 10 13 15 15 15
17 13 11 11 10 11 11 7 4 2 3 7 8 11 13 11 9 8 10 11 12 13 13 13 12 13 14 13 14 15 16 18 19 21 21 19 18 16 14 11 7 3 4 7 9 9 10 11 12 13 13 13 12 12
18 14 11 8 4 5 11 11 8 1 4 6 7 8 8 8 8 9 11 10 7 7 7 7 7 8 8 7 9 10 9 11 12 13 14 13 15 10 4 2 1 1 4 6 7 6 7 9 10 10 9 9 9 13
20 18 12 9 6 7 8 10 10 3 7 8 7 5 5 6 9 11 12 10 8 8 6 5 5 5 3 1 2 5 9 10 10 9 11 15 10 4 3 4 2 2 5 6 5 5 6 6 7 8 7 7 10 15
20 19 18 12 6 5 5 6 7 4 7 12 10 7 8 8 8 10 12 8 7 8 6 5 3 1 3 3 3 3 2 4 5 5 5 3 4 5 4 3 1 2 5 4 3 3 3 4 6 6 6 8 12 16
20 18 18 17 11 5 4 3 4 1 7 14 12 8 7 7 6 6 8 10 10 7 3 0 1 2 1 2 4 5 6 9 10 8 6 3 3 2 1 0 1 3 5 4 2 2 3 3 4 4 6 9 14 17
18 15 15 17 14 9 3 1 1 2 7 14 14 10 7 7 6 7 9 8 7 5 2 2 3 3 5 5 6 6 5 6 5 5 3 4 4 2 2 0 1 3 3 2 2 2 3 3 3 4 6 11 15 17
14 12 12 14 15 12 7 0 4 7 9 15 15 12 8 7 6 5 4 3 3 5 4 4 5 5 6 7 8 10 9 9 10 11 10 4 1 1 3 2 2 3 2 1 1 2 2 3 3 3 6 11 15 17
9 8 9 10 13 13 9 5 5 10 13 17 15 11 8 7 5 4 5 5 6 7 6 6 6 6 7 8 8 9 11 12 14 13 12 10 7 2 3 4 4 2 1 0 1 2 2 1 1 2 6 11 16 18
Wind_Direction
317 317 317 316 317 315 308 301 296 296 295 295 290 287 280 283 286 275 237 231 222 225 219 224 230 232 220 223 220 222 234 230 228 224 226 232 235 231 233 234 235 238 241 243 246 249 252 258 261 263 265 267 269 271
316 316 316 319 323 319 312 307 304 301 297 297 291 287 282 284 288 272 225 224 225 227 209 212 209 212 219 216 224 239 236 229 231 232 228 225 229 234 236 237 238 239 242 247 250 255 259 262 263 266 269 271 274 276
313 311 315 318 319 316 313 309 305 301 300 299 292 287 285 285 286 276 231 220 213 230 212 207 205 206 208 208 210 215 220 231 230 234 238 241 241 240 237 239 246 247 246 248 251 254 260 265 271 274 277 276 276 275
310 309 311 313 314 314 312 309 307 303 302 299 293 290 286 281 283 279 232 201 208 222 226 206 201 201 209 215 220 216 220 227 237 235 234 236 240 245 245 248 248 248 250 253 256 260 262 265 268 270 269 269 269 270
307 307 307 308 309 311 310 309 307 305 304 300 296 292 288 283 281 269 236 192 199 213 225 223 208 208 216 222 226 213 211 217 214 217 226 234 238 242 243 246 250 253 256 259 263 262 261 259 259 258 260 262 265 268
305 306 306 306 307 307 307 307 306 304 303 299 295 292 288 281 279 235 200 191 187 197 208 218 221 216 215 222 221 214 217 212 215 218 219 223 227 230 236 242 245 247 249 248 247 248 248 247 245 248 255 263 268 271
306 306 306 306 306 308 308 307 306 303 300 296 292 290 282 268 241 212 193 195 191 188 195 210 211 208 212 216 225 222 224 223 225 232 227 227 226 229 233 238 241 240 237 236 238 240 242 247 254 260 263 266 269 270
307 307 307 308 308 310 311 311 309 307 304 295 289 286 263 230 210 191 187 190 188 190 193 199 213 223 210 237 230 230 225 232 237 225 222 224 223 223 228 228 229 235 241 246 247 250 256 259 262 264 267 268 268 270
312 311 310 313 316 313 316 316 315 318 312 309 299 276 205 189 185 178 177 184 186 190 197 192 213 223 230 237 226 223 226 228 237 230 224 226 227 231 235 239 241 245 250 253 256 260 263 265 266 266 268 270 272 273
316 313 319 320 318 321 314 313 315 310 314 313 299 197 162 166 177 174 173 183 186 185 193 196 194 198 200 207 216 217 217 220 227 226 228 230 234 237 241 243 247 252 255 258 261 263 265 266 268 269 271 273 275 278
329 325 321 322 329 331 328 321 321 332 324 322 217 167 167 164 172 173 176 184 187 182 187 193 193 195 198 202 202 206 211 210 216 221 224 228 232 236 239 242 246 250 254 257 261 264 267 270 272 274 276 279 282 285
345 331 329 333 338 342 349 347 344 334 334 169 136 154 162 161 159 163 171 178 186 185 180 184 187 187 191 191 194 197 204 205 208 219 220 219 224 229 235 240 243 248 254 259 263 267 271 273 276 279 282 284 286 287
343 338 338 339 346 351 357 355 348 341 349 133 122 145 162 161 161 161 160 166 177 182 188 186 179 182 186 194 197 200 204 206 204 209 216 221 224 229 235 241 247 252 255 259 263 267 272 276 280 283 284 284 286 287
333 339 344 351 359 5 359 10 359 352 125 141 130 139 160 160 158 160 161 164 165 157 161 167 175 181 185 189 197 200 202 205 209 213 219 225 232 239 244 248 251 254 258 262 266 270 272 274 276 279 281 283 284 285
360 2 17 17 13 8 1 12 10 18 121 124 121 127 128 162 163 163 168 171 169 170 175 181 181 184 189 196 199 204 199 195 195 196 200 199 205 218 234 247 256 263 267 270 272 273 275 277 279 281 283 285 289 293
24 27 18 8 7 3 5 9 12 37 131 133 133 106 123 156 172 174 165 164 168 175 179 184 189 185 188 185 179 179 182 171 170 163 156 122 329 291 280 281 273 267 265 270 272 276 281 286 290 293 293 293 295 296
8 9 3 358 352 357 359 7 14 25 151 149 130 130 116 120 147 160 167 168 178 184 183 185 182 178 169 161 163 160 161 159 154 151 352 320 306 293 284 273 265 257 256 266 276 285 290 291 292 295 297 296 295 294
7 8 5 358 349 356 4 11 12 38 90 189 179 138 137 126 124 149 164 173 175 176 170 164 158 157 162 161 161 166 169 176 297 309 302 293 284 276 260 230 224 261 287 295 298 299 299 298 301 300 295 293 291 288
356 2 9 15 12 4 5 10 27 47 68 81 221 220 175 151 148 145 149 165 168 168 168 168 168 163 164 167 171 183 214 243 257 267 278 280 268 235 208 234 278 287 293 301 303 305 305 304 303 299 297 296 293 291
343 351 358 5 11 14 19 21 32 75 84 76 67 313 246 218 171 164 165 171 171 174 175 173 184 185 181 196 209 220 228 236 253 259 246 232 222 219 237 271 292 300 302 301 304 306 308 308 303 300 298 296 293 290
331 335 345 352 353 7 19 44 110 80 126 71 65 64 71 220 221 199 179 178 183 194 200 202 206 221 226 223 221 213 220 230 222 226 231 236 246 254 266 277 289 295 296 300 303 306 309 306 304 302 300 297 292 288
335 328 327 334 349 342 21 51 72 96 61 327 320 287 93 118 145 173 208 204 196 188 201 220 224 221 223 224 224 223 216 216 227 238 248 258 266 275 281 285 287 292 301 303 304 304 305 305 305 304 301 299 295 290
342 341 334 340 354 332 213 55 79 79 46 28 341 282 211 180 162 160 161 158 176 195 206 202 199 202 213 217 213 218 220 224 232 241 253 267 276 285 293 291 291 294 299 302 305 311 310 310 313 315 327 15 95 112
358 357 349 349 358 2 254 223 222 8 356 353 329 249 210 190 184 175 173 163 156 163 173 181 185 189 202 215 223 224 229 238 244 256 277 286 291 296 293 293 297 303 305 312 322 327 328 329 17 96 106 111 115 117
11 7 4 5 16 28 33 113 225 328 358 12 28 133 154 164 177 180 184 191 194 196 191 195 200 210 221 226 222 227 239 256 262 276 287 286 291 292 297 304 311 309 310 335 353 5 26 78 98 103 109 112 110 107
19 16 17 23 37 43 41 48 57 61 103 78 92 117 125 131 142 164 179 187 196 212 223 233 239 252 258 256 258 262 268 284 276 284 287 289 297 306 314 313 327 335 344 358 9 27 56 80 91 95 99 103 104 112
17 15 16 26 37 23 17 20 24 117 139 143 123 112 122 124 133 133 136 139 150 162 174 191 209 221 227 236 256 257 269 278 284 288 296 302 307 314 297 335 25 40 31 26 25 45 69 87 90 87 87 93 110 126
19 18 9 7 5 345 344 351 6 46 170 163 141 126 124 141 155 164 160 161 149 149 141 136 129 131 139 160 261 279 284 290 299 310 314 315 341 47 56 45 61 59 32 17 32 72 88 92 83 80 85 106 128 135
7 12 11 3 347 347 352 354 4 33 172 169 155 124 104 122 155 168 177 181 179 171 162 158 164 258 283 293 301 306 329 356 352 340 338 332 341 344 2 3 61 47 20 26 56 97 106 88 76 77 99 129 141 143
357 359 3 3 357 329 312 342 13 55 169 173 163 144 109 96 108 149 177 190 193 197 195 162 29 335 93 67 48 33 17 10 10 5 5 10 358 326 294 159 47 8 8 19 66 125 127 94 81 97 127 145 150 153
347 349 354 3 3 358 325 253 94 106 161 173 171 165 138 118 95 96 110 127 140 142 140 131 114 75 62 52 35 19 2 346 355 24 18 358 348 277 210 173 3 350 359 31 113 145 129 109 102 121 146 156 160 161
333 343 347 359 6 8 3 317 158 162 168 173 174 169 154 136 118 113 107 90 109 114 105 98 91 82 77 67 48 35 33 33 31 30 30 32 355 269 230 233 333 353 8 64 144 170 154 118 114 136 162 168 168 170
319 334 342 358 11 18 21 48 145 167 170 172 169 161 152 145 130 115 108 105 107 106 101 95 88 77 66 54 43 35 34 26 18 12 11 6 357 326 261 255 277 306 327 335 192 211 211 158 126 163 179 177 177 178